Location: Buckland
(65.9785°N, 161.1281°W)
Time: 22:10:35
(UTC+00:00)

PRISM - Pass Details

Date: 23 January 2021
Orbit: 565 x 584 km, 98.2° (Epoch: 06 March)

Event Time Altitude Azimuth Distance (km) Brightness Sun altitude
Rises 17:59:43 0° 35° (NE) 2,785 ? -11.3°
Reaches altitude 10° 18:03:28 10° 359° (N) 1,888 ? -11.0°
Maximum altitude 18:04:31 11° 344° (NNW) 1,831 ? -10.9°
Enters shadow 18:05:34 10° 329° (NNW) 1,889 ? -10.8°
